Theta_e
311 308 309 309 309 310 310 310 309 309 310 312 311 311 310 312 312 308 306 305 304 304 304 305 305 306 307 308 309 310 310 309 310 311 312 316 318 319 319 319 319 318 318 317
310 309 310 309 309 310 310 310 310 311 310 312 312 311 308 305 305 306 305 304 302 302 303 304 305 305 306 306 306 306 307 307 307 308 308 309 311 312 312 313 314 314 314 315
311 312 310 310 311 313 312 312 311 312 312 309 311 311 310 305 305 304 303 302 301 301 302 303 304 304 304 305 305 305 305 306 306 306 306 306 307 307 307 307 307 307 306 307
311 311 312 311 313 313 314 312 311 312 310 311 310 313 311 306 304 302 301 301 301 301 301 301 301 302 301 301 302 303 304 305 305 305 305 305 305 305 304 304 304 304 304 305
315 313 312 313 313 311 313 310 310 310 309 310 310 310 309 306 306 303 301 301 301 300 300 299 299 299 299 299 299 300 300 301 301 301 302 303 303 303 303 303 303 303 303 303
311 310 309 310 309 310 309 310 309 307 308 312 311 310 311 307 306 303 302 301 300 299 298 298 298 298 298 298 298 298 298 298 298 298 298 298 299 299 299 300 300 300 300 300
312 311 309 309 310 308 308 309 313 313 312 315 311 310 311 307 305 303 301 300 298 297 298 298 298 298 297 297 297 296 296 296 295 295 295 295 294 294 294 294 294 294 295 296
314 313 309 308 310 310 307 310 314 312 315 314 309 312 311 303 303 302 301 299 298 298 298 297 297 296 296 295 293 293 293 293 292 292 292 291 291 291 291 291 291 290 290 291
313 312 309 308 309 310 311 312 312 310 296 307 311 308 306 302 300 299 298 298 297 297 297 296 295 294 293 291 290 290 290 289 289 289 289 289 289 289 289 289 289 289 289 289
311 313 311 309 309 308 310 309 312 309 308 307 309 310 310 304 302 299 298 297 297 297 296 295 294 293 292 290 290 289 289 289 289 288 288 288 288 288 288 288 287 287 287 287
310 310 311 310 310 310 309 309 310 310 309 308 306 308 306 305 302 300 299 300 299 298 296 295 294 293 293 292 291 289 289 289 289 288 288 288 288 287 287 287 287 287 287 287
311 310 307 311 307 307 308 308 309 311 310 308 309 310 305 304 302 302 302 301 300 298 296 294 293 292 292 291 290 289 289 289 288 288 288 288 287 287 287 287 286 286 286 285
309 308 302 304 304 307 308 308 307 306 304 302 308 307 301 301 300 301 301 300 298 296 293 292 292 292 291 290 290 289 289 288 288 288 288 288 288 287 287 286 286 285 285 285
308 303 305 311 304 304 304 306 305 304 302 303 305 304 301 301 299 297 296 297 294 292 291 291 291 291 290 289 289 289 288 288 288 288 288 288 288 287 287 286 284 284 284 284
305 302 303 303 305 305 304 304 303 303 301 302 303 301 301 296 296 296 293 292 291 290 290 290 290 290 289 289 288 288 288 288 288 288 288 287 286 285 284 283 282 282 282 281
298 298 296 294 300 301 300 301 301 302 301 299 300 299 297 293 293 290 290 290 290 290 290 290 289 289 288 288 288 288 288 287 287 285 284 283 283 282 282 281 281 280 280 280
299 295 292 292 292 292 291 292 297 297 296 296 296 296 291 290 289 289 289 290 290 290 290 290 289 289 288 288 288 287 287 286 284 283 282 282 281 281 281 281 280 280 279 278
294 290 286 285 283 288 292 291 293 294 293 292 292 289 291 292 291 290 290 290 289 289 290 289 289 288 288 287 287 286 285 283 282 282 281 281 280 280 279 279 278 277 276 275
295 294 288 289 281 289 293 292 291 292 290 288 291 290 293 291 289 289 290 290 289 289 289 289 288 288 287 286 285 284 282 282 281 281 280 279 278 278 277 277 275 273 272 271
293 295 290 276 283 286 286 287 290 288 288 287 289 288 290 289 286 287 290 289 289 289 289 288 288 287 287 286 284 282 281 280 279 279 278 277 277 276 276 274 273 272 270 269
284 287 296 284 281 284 288 289 290 288 288 289 291 292 290 286 290 290 290 290 289 289 289 288 287 287 286 284 282 281 281 279 278 278 277 276 275 275 274 273 271 270 269 269
287 287 287 286 290 287 289 288 289 290 291 292 292 291 291 290 290 290 290 290 289 289 288 287 287 286 285 282 281 280 279 278 278 277 277 276 274 273 272 271 270 269 269 268
288 288 286 287 287 289 290 292 292 292 292 291 291 290 290 290 290 290 290 289 289 288 287 287 286 285 282 281 280 279 278 278 277 276 276 275 274 272 271 270 269 269 269 268
288 287 287 286 288 289 290 293 292 291 291 291 290 290 290 290 290 290 289 289 288 287 286 286 284 282 281 280 279 278 277 276 276 276 275 274 273 272 271 269 268 268 268 267
289 287 285 286 288 289 290 291 291 291 290 290 290 290 290 290 290 289 289 288 287 286 286 284 282 280 280 279 278 276 276 275 275 275 274 273 272 271 270 269 268 267 267 264
290 289 289 288 290 290 291 291 291 291 290 290 290 290 290 290 290 289 288 286 286 286 285 281 280 280 279 278 276 275 275 274 273 273 273 272 271 271 269 268 268 271 268 266
Wind_Speed
5 4 7 12 11 3 3 4 5 6 7 1 7 5 11 19 15 10 20 23 23 25 23 23 24 23 21 18 14 12 7 9 3 3 5 5 4 5 7 8 9 9 11 12
2 7 13 2 4 6 7 7 7 5 6 3 4 11 7 15 9 20 24 24 25 25 26 27 27 28 30 29 27 23 20 16 15 12 11 8 3 2 0 3 7 9 10 10
8 6 6 7 5 6 4 5 4 7 4 4 2 8 3 6 20 24 23 23 23 25 27 27 28 29 28 29 29 27 26 24 22 18 12 10 8 6 3 4 4 6 8 9
6 8 7 5 5 6 4 7 7 4 3 3 3 3 2 3 8 13 17 22 23 24 25 25 26 27 27 26 23 22 21 21 20 19 18 18 17 17 17 15 13 10 10 10
5 1 3 4 7 6 7 3 3 2 3 2 3 3 4 6 3 5 9 19 21 21 22 24 24 23 23 21 20 19 18 17 17 16 15 15 15 14 13 12 12 11 11 12
6 2 3 6 2 4 4 3 5 5 3 1 5 6 4 5 8 7 12 16 19 20 19 20 20 19 19 17 16 16 16 16 16 15 15 15 16 15 14 15 15 16 15 14
2 4 2 3 4 2 3 5 1 3 2 5 4 2 3 4 11 14 15 18 18 17 16 16 16 16 16 16 16 15 14 14 14 13 12 14 14 15 18 19 20 20 20 20
4 3 8 5 6 6 6 7 5 6 4 4 4 5 2 5 18 24 22 19 16 13 11 11 12 13 13 12 11 13 15 15 15 14 13 12 12 14 15 18 20 22 24 24
6 5 1 2 2 5 5 4 1 5 3 3 4 2 2 6 8 13 18 16 13 9 6 6 6 7 8 10 12 13 13 13 14 15 15 15 16 17 17 17 18 21 23 25
5 1 1 2 2 2 3 4 3 3 2 4 4 5 4 9 10 8 11 15 13 10 6 3 4 6 7 10 13 14 15 17 20 21 22 23 24 24 24 24 24 24 24 26
4 3 3 2 4 7 1 0 3 2 4 4 2 5 1 14 13 13 17 18 15 12 7 3 2 3 5 7 11 16 17 18 21 23 25 26 28 28 28 30 31 32 32 31
3 4 4 6 2 3 1 4 5 4 5 3 2 9 3 12 16 20 17 14 14 11 8 3 1 4 4 6 11 17 16 18 22 24 26 29 31 34 36 37 38 39 40 39
7 1 1 6 3 1 3 3 4 5 3 5 4 6 3 10 11 10 10 13 12 9 6 4 4 3 3 7 12 16 15 18 23 24 26 29 32 36 39 42 44 44 44 45
5 4 7 10 5 5 4 5 4 5 3 3 6 4 6 9 7 10 8 12 14 11 7 5 4 4 4 8 13 11 13 20 20 21 23 27 32 36 40 43 46 49 50 52
3 5 3 3 2 2 4 8 8 6 5 7 9 9 13 4 5 12 15 17 13 7 4 5 6 6 9 11 12 16 19 18 20 23 28 33 37 39 42 47 50 52 52 52
4 2 3 3 4 2 6 8 10 12 11 10 13 19 9 1 8 17 17 13 6 4 7 8 8 9 9 13 15 17 18 22 27 28 30 34 40 44 47 49 50 50 51 52
4 5 3 5 4 5 9 7 18 8 6 8 11 11 5 5 11 19 15 9 6 7 10 11 10 9 10 13 17 21 25 28 28 32 37 41 44 46 47 48 51 53 55 56
5 5 3 3 2 2 5 3 0 10 5 7 1 4 6 5 11 15 12 8 5 9 14 13 11 12 14 17 21 25 27 28 33 37 40 42 43 46 48 50 52 55 56 57
1 4 2 4 4 7 9 6 7 6 7 7 8 3 8 7 11 10 12 7 12 12 15 14 13 15 17 22 24 26 29 33 36 39 40 41 43 46 49 51 53 53 54 53
2 1 4 3 5 9 6 4 7 7 5 10 11 10 11 14 3 6 9 13 15 15 16 16 17 19 22 24 26 29 33 35 37 38 40 41 43 45 48 49 50 50 47 47
3 1 11 5 4 8 6 6 5 5 7 10 16 15 20 6 15 9 15 17 17 17 19 19 20 23 25 25 27 30 34 35 38 40 41 41 42 43 44 46 45 43 42 43
7 9 5 3 4 9 11 7 7 5 8 12 15 17 23 21 16 18 18 20 21 22 20 20 21 24 25 26 29 32 34 36 38 40 41 41 41 41 40 41 39 37 38 41
2 7 6 10 7 6 29 12 29 14 9 12 14 16 20 20 21 21 21 20 22 21 20 22 24 25 25 27 30 33 35 37 39 39 40 40 41 39 37 37 36 37 37 40
5 6 3 4 5 9 24 25 18 20 18 18 18 19 22 25 24 21 20 20 21 21 21 23 24 24 25 28 31 32 34 36 37 38 39 40 41 39 37 34 33 35 37 39
9 8 6 3 6 9 19 27 29 28 24 24 22 23 24 23 23 22 20 21 20 20 21 22 24 24 27 30 31 31 32 33 34 36 37 39 39 39 38 34 34 34 35 34
14 8 4 7 20 16 21 26 24 22 25 24 23 25 24 24 24 22 20 19 20 20 21 21 22 26 29 31 30 28 29 30 32 34 36 37 37 38 36 36 37 30 31 31
Wind_Direction
184 119 203 211 202 169 168 210 229 253 261 280 266 279 261 293 296 124 121 115 101 88 86 86 82 81 83 88 91 89 95 84 120 151 176 190 214 225 241 251 257 272 275 278
82 222 230 196 161 213 242 251 255 283 257 226 294 295 31 27 22 112 114 110 105 99 93 87 82 78 75 74 73 74 73 72 72 75 70 67 81 70 355 260 263 267 268 266
190 214 195 180 221 207 213 207 219 233 302 292 326 295 108 51 72 80 91 104 101 95 89 85 82 76 72 68 65 64 65 66 63 61 62 65 67 57 39 13 340 317 301 287
235 251 204 200 211 171 256 233 213 236 115 232 79 277 43 93 72 68 93 105 103 97 90 82 76 73 66 60 56 53 51 51 51 46 42 38 35 32 28 17 5 346 328 308
240 233 181 186 219 156 223 173 173 161 140 54 318 115 260 131 107 117 106 110 106 98 91 85 78 70 63 59 53 48 44 41 37 31 25 21 18 16 8 357 354 354 348 330
236 263 220 209 131 170 152 102 51 39 92 246 211 161 247 193 180 151 135 121 111 103 92 79 71 65 61 55 49 42 39 37 32 24 19 14 9 1 353 347 341 341 341 336
265 228 261 173 122 36 112 86 333 345 341 227 169 132 256 337 141 146 139 130 117 104 91 77 61 51 46 41 41 43 47 44 36 27 18 13 5 356 353 349 346 339 335 333
169 270 177 195 198 181 188 169 164 205 210 245 274 241 301 48 105 131 138 134 128 113 88 66 52 40 40 41 43 37 30 28 24 19 18 12 359 355 351 343 338 336 334 330
181 260 121 171 171 152 189 185 198 106 44 67 224 40 114 108 102 129 141 146 140 127 95 68 57 49 47 51 49 44 41 38 29 21 15 6 357 350 342 334 328 321 319 318
189 210 47 183 127 63 168 161 69 8 167 260 277 268 200 177 172 172 168 169 164 170 171 129 60 46 57 52 39 27 19 14 8 5 4 1 358 352 347 341 335 329 322 318
130 134 247 142 205 189 128 168 84 133 152 185 243 254 242 177 175 178 188 191 188 194 202 183 124 81 47 26 14 3 356 351 349 346 345 343 342 340 334 332 331 329 323 320
183 145 182 201 341 318 345 202 166 155 225 227 174 261 96 157 168 176 192 203 207 209 195 173 54 16 5 354 353 349 343 339 337 334 332 332 330 329 327 324 322 321 319 317
179 164 64 350 345 48 186 170 127 104 81 203 183 258 98 118 144 192 202 202 191 184 196 198 218 256 305 324 324 324 323 323 323 320 318 319 319 319 317 316 315 315 313 310
131 148 179 224 189 134 158 171 166 132 137 184 222 273 176 171 180 200 196 182 172 177 173 179 209 213 268 308 310 301 304 314 310 304 297 301 305 305 305 305 306 306 305 303
132 188 142 285 138 138 184 172 187 182 180 192 248 222 256 211 230 209 174 163 169 174 202 222 218 245 280 294 288 296 301 304 303 300 298 299 301 301 301 302 302 302 302 302
357 170 101 315 291 233 268 193 191 218 234 243 252 267 270 99 159 151 163 167 179 223 227 200 240 280 287 293 298 297 296 298 302 303 303 304 304 305 305 306 306 305 302 298
128 129 86 262 1 29 303 207 203 201 198 219 226 243 169 164 158 164 165 181 209 247 221 248 261 272 288 289 292 298 304 306 308 309 310 311 311 311 311 309 307 305 302 299
137 106 94 181 26 271 248 304 302 215 179 208 126 212 199 185 195 174 187 205 282 271 249 249 263 285 293 300 303 304 305 307 312 314 315 316 316 314 313 311 309 307 305 303
121 130 110 166 191 303 278 221 170 162 266 196 195 191 206 169 161 213 217 262 298 271 242 248 268 287 296 304 305 305 309 314 317 318 318 318 317 316 315 314 312 310 309 308
171 60 140 110 170 216 249 292 118 101 285 217 182 193 187 164 164 239 230 284 284 257 247 261 278 289 297 301 304 308 314 318 320 319 319 320 320 318 316 315 313 313 310 308
101 70 209 198 225 285 242 220 139 107 244 171 200 218 191 185 215 265 292 274 271 260 253 266 283 292 298 302 305 311 315 318 319 318 319 320 321 319 318 318 314 310 309 308
158 160 197 135 204 268 183 132 177 196 178 189 209 219 209 220 258 275 278 269 256 250 259 276 289 295 299 303 307 312 316 317 316 317 318 320 321 322 323 316 313 314 314 312
233 193 182 185 203 223 175 195 212 229 218 225 226 237 234 243 263 271 274 260 254 258 271 285 292 294 296 301 309 314 316 315 314 315 318 321 323 326 325 318 318 318 318 315
255 164 204 100 226 216 201 216 227 219 237 254 248 256 258 253 271 267 262 257 255 262 276 287 289 292 299 310 314 314 314 312 313 316 320 324 326 327 326 324 323 319 318 317
210 150 166 248 268 242 233 234 243 248 254 261 262 260 261 267 271 268 258 255 260 268 279 285 288 295 306 309 311 313 311 311 314 318 323 326 328 328 326 326 326 319 319 310
216 206 197 235 241 230 245 264 261 260 255 249 250 252 259 267 268 258 261 260 264 273 278 281 292 302 308 311 312 313 310 312 317 321 325 327 329 327 328 328 327 328 321 309